Date,TemperatureHighF,TemperatureAvgF,TemperatureLowF,DewpointHighF,DewpointAvgF,DewpointLowF,HumidityHigh,HumidityAvg,HumidityLow,PressureMaxIn,PressureMinIn,WindSpeedMaxMPH,WindSpeedAvgMPH,GustSpeedMaxMPH,PrecipitationSumIn
2013-2-2,21.6,21.3,20.8,14.8,14.6,14.4,77,75,74,29.94,29.92,2,0,15,0.00
2013-2-3,30.7,23.5,15.6,15.8,12.8,9.3,77,64,48,29.92,29.64,4,0,7,0.00
2013-2-4,30.2,24.9,21.0,17.0,5.3,-4.3,76,44,24,29.81,29.64,9,2,14,0.00
2013-2-5,31.5,25.7,21.2,20.7,17.1,10.7,77,70,60,29.86,29.76,2,0,4,0.00
2013-2-6,38.8,29.3,21.2,25.0,16.0,-0.1,83,60,33,30.21,29.77,7,1,11,0.01
2013-2-7,34.3,23.8,14.2,11.8,5.4,0.5,67,47,25,30.38,30.20,3,0,4,0.00
2013-2-8,32.9,30.1,24.4,26.2,23.8,12.2,83,77,59,30.27,29.57,6,1,8,0.00
2013-2-9,32.5,27.0,23.2,19.1,9.6,-5.1,78,51,23,29.98,29.61,12,2,17,0.01
2013-2-10,37.8,15.3,-3.5,7.6,-2.1,-12.9,67,49,22,30.35,30.21,3,0,4,0.00
2013-2-11,40.6,33.4,18.9,36.2,27.7,9.0,86,79,63,30.17,29.56,3,0,4,0.17
2013-2-12,38.8,37.8,34.7,30.4,27.4,26.6,84,66,62,29.65,29.57,4,3,8,0.17
2013-2-13,46.2,34.9,22.8,26.2,21.0,16.3,79,59,33,29.80,29.56,2,0,4,0.00
2013-2-14,46.8,33.0,23.2,26.7,22.4,17.6,83,67,40,29.84,29.58,4,0,5,0.04
2013-2-15,54.0,39.0,25.0,31.2,25.3,18.2,79,60,36,29.85,29.75,5,1,9,0.00
2013-2-16,36.5,31.9,27.3,27.7,19.5,7.7,82,62,43,29.85,29.62,6,1,12,0.02
2013-2-17,30.6,23.9,16.5,6.7,-1.5,-7.9,46,33,23,29.75,29.51,9,4,15,0.00
2013-2-18,17.2,16.1,14.9,-2.2,-3.1,-6.9,44,42,34,30.02,29.75,4,2,14,0.00
2013-2-19,43.7,35.7,23.0,34.5,27.4,11.8,86,73,43,30.04,29.54,6,1,11,0.07
2013-2-20,36.3,29.8,24.4,26.8,11.7,4.7,68,47,37,29.78,29.54,10,4,21,0.00
2013-2-21,33.8,27.1,22.6,11.4,8.0,6.4,51,44,34,29.91,29.79,7,4,11,0.00
2013-2-22,38.8,30.7,21.6,23.0,17.4,10.2,66,58,46,30.28,30.15,3,0,4,0.00
2013-2-23,39.6,37.0,33.1,34.7,30.6,23.0,83,77,65,30.15,29.83,4,1,8,0.04
2013-2-27,40.3,37.5,35.2,35.8,32.6,30.3,84,82,81,29.51,29.49,2,0,4,0.00
2013-2-28,48.4,38.5,33.1,36.8,31.9,28.5,87,78,54,29.49,29.42,4,0,7,0.13
2013-3-1,46.0,36.2,29.7,31.8,26.7,20.9,84,69,53,29.65,29.48,7,1,11,0.00
2013-3-2,40.3,34.2,28.6,25.0,21.8,20.4,76,60,53,29.65,29.57,4,1,12,0.00
2013-3-3,37.2,30.5,26.6,23.5,18.1,12.7,74,60,42,29.62,29.55,6,1,13,0.01
2013-3-4,42.6,32.5,26.8,21.9,16.2,12.0,61,51,43,29.77,29.61,8,2,14,0.00
2013-3-5,47.5,35.8,23.7,26.7,21.5,15.0,72,56,40,29.91,29.77,6,1,11,0.00
2013-3-6,44.4,38.1,32.2,33.7,26.8,22.6,73,63,54,29.90,29.81,6,2,18,0.00
2013-3-7,36.7,34.2,31.5,27.5,25.1,21.5,81,69,56,29.98,29.86,7,2,18,0.04
2013-3-8,38.7,33.5,29.5,28.8,25.6,21.7,81,73,56,30.11,29.89,5,1,10,0.08
2013-3-9,53.1,36.7,24.4,26.5,20.7,16.4,77,56,25,30.19,30.10,4,0,8,0.07
2013-3-10,55.4,37.8,21.2,32.9,25.5,15.8,80,64,34,30.25,30.13,3,0,8,0.00
2013-3-11,54.5,41.5,34.2,40.1,33.4,27.1,84,73,55,30.18,30.01,4,1,10,0.00
2013-3-12,54.7,51.9,49.6,49.6,46.4,43.4,83,81,75,29.89,29.57,8,2,14,0.44
2013-3-13,49.3,40.4,33.4,34.3,27.2,18.9,85,62,31,29.75,29.65,5,1,12,0.00
2013-3-14,35.8,31.6,25.9,24.8,8.2,0.3,72,39,23,29.80,29.71,9,2,15,0.00
2013-3-15,41.5,32.8,23.0,27.0,14.1,2.0,62,46,28,29.81,29.58,2,0,9,0.00
2013-3-16,38.1,32.4,25.9,24.2,18.6,13.0,79,58,37,29.78,29.64,2,0,4,0.00
2013-3-17,41.0,31.2,21.9,24.6,12.1,1.8,80,48,23,30.19,29.79,2,0,8,0.00
2013-3-18,23.5,21.2,17.1,10.7,8.0,5.3,63,56,48,30.28,30.19,0,0,0,0.00
2013-3-21,39.7,37.1,32.9,13.9,10.4,6.0,43,33,27,29.61,29.50,0,0,7,0.00
2013-3-25,49.5,38.3,29.5,26.1,23.4,20.9,77,57,35,29.60,29.34,1,0,6,0.00
2013-3-26,52.3,39.9,28.2,29.9,25.4,20.0,74,58,37,29.72,29.47,1,0,5,0.00
2013-3-27,53.6,37.8,21.9,27.1,21.2,16.1,78,55,26,29.83,29.72,1,0,4,0.00
2013-3-28,49.1,40.1,29.8,32.9,28.4,22.8,80,64,49,29.97,29.82,1,0,2,0.00
2013-3-29,55.9,41.7,25.9,30.6,25.9,20.0,84,57,29,30.01,29.91,2,0,8,0.00
2013-3-30,59.5,42.6,27.1,32.6,23.8,16.7,82,53,22,30.03,29.92,0,0,2,0.00
2013-3-31,57.4,42.7,24.8,41.8,30.7,20.1,94,67,27,30.00,29.57,2,0,9,0.11
2013-4-1,61.5,45.3,33.4,44.2,33.7,7.5,96,68,29,29.77,29.48,5,0,17,0.01
2013-4-2,58.3,35.4,28.8,19.6,11.6,2.4,57,39,22,29.93,29.77,5,0,23,0.01
2013-4-3,74.1,40.8,28.4,25.1,13.5,8.1,57,35,14,30.16,29.92,0,0,0,0.00
2013-4-4,81.3,46.2,24.8,30.1,20.2,12.6,67,41,13,30.25,29.92,0,0,0,0.00
2013-4-5,86.5,52.9,36.9,34.4,25.0,17.1,75,39,13,29.92,29.59,0,0,2,0.01
2013-4-6,75.4,45.2,31.5,25.2,17.1,6.5,62,36,13,30.16,29.86,0,0,0,0.00
2013-4-7,73.8,48.6,35.4,42.5,31.9,20.2,85,57,17,30.15,29.84,0,0,0,0.00
2013-4-8,91.4,60.2,38.3,45.4,40.8,37.3,98,57,16,29.97,29.84,0,0,0,0.00
2013-4-9,100.8,70.5,50.5,53.3,44.7,36.9,86,47,12,29.85,29.77,0,0,0,0.00
2013-4-10,65.8,58.8,55.6,56.4,55.3,52.8,99,89,64,29.76,29.59,0,0,0,0.00
2013-4-11,76.8,52.4,40.8,55.5,41.3,31.0,99,69,32,29.97,29.71,0,0,0,0.00
2013-4-12,43.0,41.2,39.2,39.6,36.9,33.5,96,85,69,29.96,29.63,0,0,0,0.00
2013-4-13,62.8,47.6,37.8,42.2,37.8,34.8,99,72,44,29.81,29.66,0,0,0,0.00
2013-4-14,63.1,47.4,36.7,39.1,32.4,24.9,90,60,25,30.10,29.81,0,0,0,0.00
2013-4-15,76.3,49.8,33.6,35.4,31.4,24.2,89,55,19,30.25,30.10,0,0,0,0.00
2013-4-16,84.9,56.7,44.2,53.9,45.6,31.5,90,68,32,30.24,29.96,0,0,0,0.00
2013-4-17,93.6,60.9,44.8,55.3,42.2,32.3,99,58,15,30.18,29.98,0,0,0,0.00
2013-4-18,63.1,52.3,39.6,49.8,40.3,33.4,97,68,34,30.22,29.98,0,0,0,0.00
2013-4-19,75.7,64.5,53.4,64.8,58.8,49.8,99,83,59,29.98,29.48,0,0,0,0.00
2013-4-20,71.2,52.9,41.7,52.6,36.5,23.7,98,60,22,30.19,29.56,0,0,0,0.00
2013-4-21,77.2,46.7,31.5,31.3,23.9,16.5,77,45,15,30.50,30.19,0,0,0,0.00
2013-4-22,82.0,48.9,34.3,39.4,29.2,17.8,88,54,13,30.55,30.38,0,0,0,0.00
2013-4-23,55.2,44.2,35.1,41.6,36.4,28.5,91,74,58,30.39,30.00,0,0,0,0.00
2013-4-24,95.2,58.2,33.4,50.7,44.8,32.4,99,67,21,30.00,29.66,0,0,0,0.00
2013-4-25,91.0,58.8,41.7,53.5,33.2,21.5,88,45,12,30.13,29.69,0,0,0,0.00
2013-4-26,83.7,47.7,33.6,44.2,35.0,31.4,97,70,20,30.28,30.13,0,0,0,0.00
2013-4-27,88.9,50.5,34.9,37.2,33.7,31.1,89,61,13,30.32,30.27,0,0,0,0.00
2013-5-5,72.0,56.6,40.8,44.6,39.8,28.4,91,59,20,30.18,30.04,0,0,2,0.05
2013-5-6,73.9,58.9,41.0,52.8,47.0,38.6,93,68,39,30.15,29.99,0,0,0,0.00
2013-5-7,79.3,65.8,47.5,57.6,52.0,45.3,93,65,33,30.04,29.94,0,0,0,0.00
2013-5-8,68.4,62.6,57.9,63.6,59.1,55.3,94,88,80,30.00,29.86,0,0,0,0.00
2013-5-9,65.8,58.8,52.9,60.0,56.4,51.5,99,92,79,29.89,29.76,0,0,0,0.00
2013-5-10,79.5,66.7,49.8,60.7,55.0,48.6,97,70,43,29.87,29.75,0,0,0,0.00
2013-5-11,70.2,64.8,61.3,65.7,62.0,57.0,98,91,74,29.76,29.56,0,0,2,0.01
2013-5-12,66.7,58.6,48.0,60.4,43.5,22.3,99,64,20,29.77,29.53,8,1,17,0.00
2013-5-13,55.4,46.2,37.2,41.2,32.7,26.6,99,62,36,29.98,29.78,8,1,13,0.01
2013-5-14,62.4,46.2,30.7,41.3,31.6,22.2,99,65,22,30.00,29.88,4,0,8,0.00
2013-5-15,68.0,49.0,33.8,53.2,42.1,33.3,99,79,52,29.94,29.58,8,1,11,0.04